SQ5DCP-1 Weather Reports


Display with metric or nautical units.
time (UTC)temp
F
wind
direction
speed
MPH
gust
MPH
rain 1hr
in
rain 24hr
in
rain mn
in
humidity
%
barometer
mb
20260902141530 69 309 2.0 3.0 0.00 0.00 0.00 65 1019.7
20260902141028 69 288 2.0 3.0 0.00 0.00 0.00 66 1019.7
20260902140526 69 282 3.0 6.0 0.00 0.00 0.00 65 1019.8
20260902140025 69 308 2.0 4.0 0.00 0.00 0.00 63 1019.6
20260902135523 69 331 2.0 4.0 0.00 0.00 0.00 63 1019.7
20260902135021 69 324 2.0 3.0 0.00 0.00 0.00 63 1019.6
20260902134519 69 42 1.0 2.0 0.00 0.00 0.00 63 1019.7
20260902134017 69 9 1.0 2.0 0.00 0.00 0.00 63 1019.7
20260902133535 69 329 1.0 2.0 0.00 0.00 0.00 62 1019.7
20260902133034 69 354 3.0 7.0 0.00 0.00 0.00 62 1019.7
20260902132532 69 353 3.0 7.0 0.00 0.00 0.00 62 1019.8
20260902132030 70 1 3.0 9.0 0.00 0.00 0.00 62 1019.7
20260902131528 70 10 3.0 10.0 0.00 0.00 0.00 61 1019.7
20260902131026 70 323 5.0 10.0 0.00 0.00 0.00 60 1019.8
20260902130524 70 286 6.0 16.0 0.00 0.00 0.00 62 1019.7
20260902130023 70 278 2.0 8.0 0.00 0.00 0.00 64 1019.8
20260902125520 70 292 2.0 6.0 0.00 0.00 0.00 64 1019.8
20260902125019 70 286 3.0 8.0 0.00 0.00 0.00 63 1019.8
20260902124517 70 281 3.0 6.0 0.00 0.00 0.00 63 1019.8
20260902124035 70 276 3.0 7.0 0.00 0.00 0.00 62 1019.8
20260902123533 70 276 3.0 8.0 0.00 0.00 0.00 63 1019.9
20260902123031 70 293 4.0 9.0 0.00 0.00 0.00 63 1019.9
20260902122530 71 270 5.0 10.0 0.00 0.00 0.00 62 1020.0
20260902122028 71 243 6.0 13.0 0.00 0.00 0.00 62 1020.0
20260902121526 71 272 6.0 15.0 0.00 0.00 0.00 62 1020.2
20260902121024 71 231 5.0 11.0 0.00 0.00 0.00 63 1020.2
20260902120522 70 242 5.0 10.0 0.00 0.00 0.00 65 1020.3
20260902120020 70 228 5.0 11.0 0.00 0.00 0.00 65 1020.3
20260902115519 70 230 6.0 13.0 0.00 0.00 0.00 65 1020.3
20260902115049 70 242 8.0 16.0 0.00 0.00 0.00 64 1020.4
20260902115017 70 242 8.0 16.0 0.00 0.00 0.00 64 1020.4
20260902114535 70 274 6.0 14.0 0.00 0.00 0.00 62 1020.4
20260902114033 69 288 7.0 11.0 0.00 0.00 0.00 63 1020.4
20260902113532 69 276 6.0 10.0 0.00 0.00 0.00 66 1020.5
20260902113030 69 275 5.0 11.0 0.00 0.00 0.00 68 1020.5
20260902112528 69 273 4.0 8.0 0.00 0.00 0.00 69 1020.5
20260902112026 69 268 4.0 7.0 0.00 0.00 0.00 69 1020.5
20260902111524 69 277 5.0 9.0 0.00 0.00 0.00 69 1020.4
20260902111022 69 279 2.0 9.0 0.00 0.00 0.00 69 1020.5
20260902110521 69 291 3.0 9.0 0.00 0.00 0.00 69 1020.5
20260902110019 69 295 3.0 7.0 0.00 0.00 0.00 67 1020.6
20260902105517 69 298 6.0 10.0 0.00 0.00 0.00 64 1020.6
20260902105035 70 286 8.0 17.0 0.00 0.00 0.00 61 1020.6
20260902104534 70 276 8.0 14.0 0.00 0.00 0.00 60 1020.5
20260902104031 70 269 7.0 14.0 0.00 0.00 0.00 60 1020.5
20260902103530 70 281 7.0 14.0 0.00 0.00 0.00 60 1020.4
20260902103028 70 286 5.0 11.0 0.00 0.00 0.00 61 1020.5
20260902102526 70 280 5.0 14.0 0.00 0.00 0.00 61 1020.5
20260902102024 70 284 3.0 8.0 0.00 0.00 0.00 61 1020.5
20260902101522 70 278 6.0 13.0 0.00 0.00 0.00 60 1020.5
20260902101021 70 301 7.0 11.0 0.00 0.00 0.00 60 1020.4
20260902100519 70 282 7.0 15.0 0.00 0.00 0.00 60 1020.5
20260902100051 70 286 6.0 13.0 0.00 0.00 0.00 60 1020.6
20260902100017 70 286 6.0 13.0 0.00 0.00 0.00 60 1020.6
20260902095535 70 281 6.0 16.0 0.00 0.00 0.00 60 1020.5
20260902095033 71 292 8.0 15.0 0.00 0.00 0.00 60 1020.5
20260902094531 70 282 7.0 11.0 0.00 0.00 0.00 61 1020.6
20260902094029 70 279 3.0 11.0 0.00 0.00 0.00 61 1020.6
20260902093528 70 296 5.0 10.0 0.00 0.00 0.00 61 1020.6
20260902093026 70 267 6.0 11.0 0.00 0.00 0.00 61 1020.7
20260902092524 69 286 5.0 11.0 0.00 0.00 0.00 63 1020.8
20260902092022 69 262 5.0 10.0 0.00 0.00 0.00 64 1020.8
20260902091520 69 275 6.0 11.0 0.00 0.00 0.00 62 1020.8
20260902091018 69 298 6.0 11.0 0.00 0.00 0.00 63 1020.7
20260902090517 69 276 5.0 14.0 0.00 0.00 0.00 65 1020.8
20260902090035 69 288 4.0 8.0 0.00 0.00 0.00 64 1020.8
20260902085534 68 269 6.0 15.0 0.00 0.00 0.00 64 1020.8
20260902085031 68 284 6.0 15.0 0.00 0.00 0.00 65 1020.8
20260902084530 68 282 6.0 11.0 0.00 0.00 0.00 64 1020.8
20260902084028 68 281 8.0 13.0 0.00 0.00 0.00 66 1020.9
20260902083526 68 280 5.0 13.0 0.00 0.00 0.00 66 1020.7
20260902083024 67 292 6.0 11.0 0.00 0.00 0.00 66 1020.7
20260902082522 67 286 4.0 11.0 0.00 0.00 0.00 68 1020.8
20260902082021 66 263 5.0 10.0 0.00 0.00 0.00 70 1020.7
20260902081519 66 278 4.0 9.0 0.00 0.00 0.00 70 1020.8
20260902081048 65 283 4.0 8.0 0.00 0.00 0.00 72 1020.8
20260902081017 65 283 4.0 8.0 0.00 0.00 0.00 72 1020.8
20260902080535 65 279 3.0 8.0 0.00 0.00 0.00 72 1020.8
20260902080033 65 275 3.0 8.0 0.00 0.00 0.00 73 1020.7
20260902075531 64 257 4.0 7.0 0.00 0.00 0.00 73 1020.7
20260902075029 64 282 4.0 9.0 0.00 0.00 0.00 74 1020.7
20260902074527 63 292 3.0 8.0 0.00 0.00 0.00 74 1020.7
20260902074026 63 293 3.0 7.0 0.00 0.00 0.00 74 1020.8
20260902073524 63 265 1.0 3.0 0.00 0.00 0.00 74 1020.7
20260902073022 63 274 3.0 8.0 0.00 0.00 0.00 73 1020.8
20260902072520 63 280 5.0 9.0 0.00 0.00 0.00 73 1020.8
20260902072019 63 289 4.0 9.0 0.00 0.00 0.00 74 1020.6
20260902071517 62 285 3.0 7.0 0.00 0.00 0.00 74 1020.5
20260902071035 62 287 3.0 7.0 0.00 0.00 0.00 75 1020.5
20260902070533 62 272 2.0 6.0 0.00 0.00 0.00 75 1020.4
20260902070032 62 271 2.0 7.0 0.00 0.00 0.00 75 1020.3
20260902065529 62 285 3.0 7.0 0.00 0.00 0.00 75 1020.3
20260902065027 61 287 2.0 7.0 0.00 0.00 0.00 75 1020.3
20260902064526 61 283 3.0 9.0 0.00 0.00 0.00 75 1020.3
20260902064024 61 281 4.0 9.0 0.00 0.00 0.00 75 1020.4
20260902063522 61 283 4.0 10.0 0.00 0.00 0.00 76 1020.4
20260902063020 61 292 3.0 7.0 0.00 0.00 0.00 76 1020.3
20260902062519 60 280 1.0 3.0 0.00 0.00 0.00 77 1020.2
20260902062049 60 255 2.0 4.0 0.00 0.00 0.00 77 1020.3
20260902062016 60 255 2.0 4.0 0.00 0.00 0.00 77 1020.3
20260902061535 59 286 2.0 7.0 0.00 0.00 0.00 78 1020.2
20260902061033 59 273 3.0 7.0 0.00 0.00 0.00 78 1020.2
20260902060531 59 262 2.0 8.0 0.00 0.00 0.00 78 1020.1
20260902060029 58 242 2.0 6.0 0.00 0.00 0.00 78 1020.2
20260902055527 58 264 3.0 6.0 0.00 0.00 0.00 79 1020.2
20260902055026 58 249 3.0 6.0 0.00 0.00 0.00 79 1020.3
20260902054523 58 261 2.0 6.0 0.00 0.00 0.00 79 1020.2
20260902054105 57 252 2.0 4.0 0.00 0.00 0.00 79 1020.1
20260902054021 57 252 2.0 4.0 0.00 0.00 0.00 79 1020.1
20260902053520 57 240 3.0 7.0 0.00 0.00 0.00 79 1020.2
20260902053109 57 250 3.0 6.0 0.00 0.00 0.00 79 1020.2
20260902053018 57 250 3.0 6.0 0.00 0.00 0.00 79 1020.2
20260902052516 57 232 1.0 4.0 0.00 0.00 0.00 79 1020.1
20260902052034 57 240 1.0 4.0 0.00 0.00 0.00 79 1020.1
20260902051533 57 280 2.0 6.0 0.00 0.00 0.00 79 1020.2
20260902051031 57 276 2.0 6.0 0.00 0.00 0.00 80 1020.3
20260902050529 56 278 2.0 7.0 0.00 0.00 0.00 80 1020.2
20260902050027 56 260 0.0 3.0 0.00 0.00 0.00 79 1020.1
20260902045527 56 233 1.0 3.0 0.00 0.00 0.00 79 1020.0
20260902045023 56 244 0.0 2.0 0.00 0.00 0.00 79 1020.1
20260902044522 56 258 1.0 3.0 0.00 0.00 0.00 79 1019.9
20260902044019 56 252 0.0 2.0 0.00 0.00 0.00 79 1020.0
20260902043518 56 0.0 0.0 0.00 0.00 0.00 79 1019.8
20260902043047 56 249 0.0 2.0 0.00 0.00 0.00 79 1019.8
20260902043016 56 249 0.0 2.0 0.00 0.00 0.00 79 1019.8
20260902042534 56 0.0 0.0 0.00 0.00 0.00 79 1019.8
20260902042032 56 0.0 0.0 0.00 0.00 0.00 79 1019.8
20260902041531 56 0.0 0.0 0.00 0.00 0.00 78 1019.8
20260902041111 56 229 0.0 1.0 0.00 0.00 0.00 78 1019.8
20260902041028 56 229 0.0 1.0 0.00 0.00 0.00 78 1019.8
20260902040526 56 226 0.0 1.0 0.00 0.00 0.00 78 1019.8
20260902040058 56 252 0.0 2.0 0.00 0.00 0.00 78 1019.7
20260902040025 56 252 0.0 2.0 0.00 0.00 0.00 78 1019.7
20260902035522 56 263 0.0 2.0 0.00 0.00 0.00 78 1019.6
20260902035021 56 249 0.0 2.0 0.00 0.00 0.00 78 1019.6
20260902034519 56 247 1.0 4.0 0.00 0.00 0.00 78 1019.6
20260902034049 56 266 0.0 3.0 0.00 0.00 0.00 78 1019.7
20260902034017 56 266 0.0 3.0 0.00 0.00 0.00 78 1019.7
20260902033535 56 276 1.0 4.0 0.00 0.00 0.00 78 1019.7
20260902033033 56 248 0.0 2.0 0.00 0.00 0.00 78 1019.7
20260902032532 56 271 1.0 3.0 0.00 0.00 0.00 78 1019.8
20260902032029 56 0.0 0.0 0.00 0.00 0.00 77 1019.8
20260902031527 56 232 0.0 3.0 0.00 0.00 0.00 77 1019.8
20260902031104 56 256 0.0 2.0 0.00 0.00 0.00 77 1019.8
20260902031025 56 256 0.0 2.0 0.00 0.00 0.00 77 1019.8
20260902030523 56 234 0.0 3.0 0.00 0.00 0.00 77 1019.7
20260902030021 56 265 0.0 3.0 0.00 0.00 0.00 77 1019.7
20260902025519 56 0.0 0.0 0.00 0.00 0.00 77 1019.8
20260902025049 56 239 0.0 1.0 0.00 0.00 0.00 77 1019.7
20260902025018 56 239 0.0 1.0 0.00 0.00 0.00 77 1019.7
20260902024516 56 0.0 0.0 0.00 0.00 0.00 77 1019.8
20260902024034 57 0.0 0.0 0.00 0.00 0.00 77 1019.8
20260902023532 57 0.0 0.0 0.00 0.00 0.00 77 1019.8
20260902023030 57 0.0 0.0 0.00 0.00 0.00 76 1019.8
20260902022528 57 214 0.0 2.0 0.00 0.00 0.00 76 1019.8
20260902022027 57 0.0 0.0 0.00 0.00 0.00 76 1019.9
20260902021525 57 0.0 0.0 0.00 0.00 0.00 76 1019.8
20260902021023 58 0.0 0.0 0.00 0.00 0.00 76 1019.8
20260902020521 58 0.0 0.0 0.00 0.00 0.00 76 1019.9
20260902020019 58 0.0 0.0 0.00 0.00 0.00 76 1019.9
20260902015518 58 242 0.0 2.0 0.00 0.00 0.00 76 1019.8
20260902015124 58 257 1.0 3.0 0.00 0.00 0.00 76 1019.8
20260902015036 58 257 1.0 3.0 0.00 0.00 0.00 76 1019.8
20260902014534 58 256 1.0 3.0 0.00 0.00 0.00 76 1019.9
20260902014117 58 255 2.0 4.0 0.00 0.00 0.00 76 1019.9
20260902014032 58 255 2.0 4.0 0.00 0.00 0.00 76 1019.9
20260902013530 58 248 2.0 6.0 0.00 0.00 0.00 76 1019.8
20260902013028 58 260 1.0 3.0 0.00 0.00 0.00 75 1019.9
20260902012526 58 276 1.0 4.0 0.00 0.00 0.00 75 1019.7
20260902012115 58 288 1.0 4.0 0.00 0.00 0.00 75 1019.8
20260902012024 58 288 1.0 4.0 0.00 0.00 0.00 75 1019.8
20260902011522 58 259 0.0 3.0 0.00 0.00 0.00 75 1019.8
20260902011021 58 0.0 0.0 0.00 0.00 0.00 75 1019.7
20260902010519 58 264 0.0 2.0 0.00 0.00 0.00 75 1019.7
20260902010100 58 275 1.0 6.0 0.00 0.00 0.00 76 1019.7
20260902010017 58 275 1.0 6.0 0.00 0.00 0.00 76 1019.7
20260902005536 58 264 2.0 6.0 0.00 0.00 0.00 75 1019.7
20260902005033 58 270 1.0 3.0 0.00 0.00 0.00 75 1019.8
20260902004531 58 263 1.0 6.0 0.00 0.00 0.00 75 1019.7
20260902004030 58 256 2.0 3.0 0.00 0.00 0.00 75 1019.8
20260902003528 58 254 2.0 4.0 0.00 0.00 0.00 75 1019.7
20260902003025 59 253 0.0 2.0 0.00 0.00 0.00 75 1019.7
20260902002524 59 218 0.0 2.0 0.00 0.00 0.00 75 1019.7
20260902002022 59 233 0.0 2.0 0.00 0.00 0.00 75 1019.6
20260902001520 59 0.0 0.0 0.00 0.00 0.00 75 1019.6
20260902001018 59 237 0.0 2.0 0.00 0.00 0.00 75 1019.7
20260902000516 59 262 0.0 2.0 0.00 0.00 0.00 75 1019.7
20260902000034 59 264 0.0 2.0 0.00 0.00 0.00 75 1019.7
20260901235532 59 251 1.0 3.0 0.00 0.00 0.00 75 1019.7
20260901235031 59 245 1.0 3.0 0.00 0.00 0.00 75 1019.7
20260901234529 59 244 1.0 2.0 0.00 0.00 0.00 75 1019.6
20260901234027 59 0.0 0.0 0.00 0.00 0.00 75 1019.6
20260901233525 59 0.0 0.0 0.00 0.00 0.00 75 1019.6
20260901233023 60 249 1.0 3.0 0.00 0.00 0.00 75 1019.6
20260901232521 60 245 1.0 4.0 0.00 0.00 0.00 75 1019.6
20260901232019 60 241 0.0 2.0 0.00 0.00 0.00 75 1019.5
20260901231517 60 0.0 0.0 0.00 0.00 0.00 75 1019.6
20260901231048 60 256 0.0 2.0 0.00 0.00 0.00 75 1019.4
20260901231016 60 256 0.0 2.0 0.00 0.00 0.00 75 1019.4
20260901230534 60 299 1.0 6.0 0.00 0.00 0.00 75 1019.5
20260901230032 60 282 2.0 7.0 0.00 0.00 0.00 75 1019.5
20260901225530 60 287 3.0 9.0 0.00 0.00 0.00 75 1019.6
20260901225028 60 292 3.0 6.0 0.00 0.00 0.00 75 1019.5
20260901224526 60 283 3.0 7.0 0.00 0.00 0.00 75 1019.4
20260901224024 60 277 3.0 6.0 0.00 0.00 0.00 75 1019.5
20260901223522 60 284 2.0 6.0 0.00 0.00 0.00 75 1019.4
20260901223020 60 284 3.0 7.0 0.00 0.00 0.00 75 1019.5
20260901222519 60 284 3.0 9.0 0.00 0.00 0.00 75 1019.5
20260901222017 60 287 2.0 6.0 0.00 0.00 0.00 74 1019.5
20260901221535 60 285 2.0 6.0 0.00 0.00 0.00 74 1019.5
20260901221033 60 288 3.0 7.0 0.00 0.00 0.00 74 1019.5
20260901220531 60 288 2.0 6.0 0.00 0.00 0.00 74 1019.4
20260901220030 60 281 2.0 4.0 0.00 0.00 0.00 74 1019.4
20260901215527 60 279 2.0 4.0 0.00 0.00 0.00 74 1019.5
20260901215025 60 264 1.0 3.0 0.00 0.00 0.00 74 1019.5
20260901214523 60 261 1.0 4.0 0.00 0.00 0.00 74 1019.6
20260901214022 60 258 1.0 2.0 0.00 0.00 0.00 74 1019.5
20260901213520 60 258 1.0 4.0 0.00 0.00 0.00 74 1019.5
20260901213049 60 275 1.0 3.0 0.00 0.00 0.00 74 1019.4
20260901213018 60 275 1.0 3.0 0.00 0.00 0.00 74 1019.4
20260901212516 60 274 1.0 3.0 0.00 0.00 0.00 74 1019.5
20260901212034 60 260 1.0 3.0 0.00 0.00 0.00 73 1019.5
20260901211532 60 0.0 0.0 0.00 0.00 0.00 73 1019.5
20260901211030 61 259 0.0 1.0 0.00 0.00 0.00 73 1019.5
20260901210528 61 278 1.0 4.0 0.00 0.00 0.00 73 1019.5
20260901210027 61 0.0 0.0 0.00 0.00 0.00 72 1019.6
20260901205525 61 0.0 0.0 0.00 0.00 0.00 72 1019.5
20260901205023 61 259 0.0 1.0 0.00 0.00 0.00 72 1019.5
20260901204521 62 252 0.0 1.0 0.00 0.00 0.00 72 1019.5
20260901204019 62 0.0 0.0 0.00 0.00 0.00 72 1019.5
20260901203517 62 291 1.0 2.0 0.00 0.00 0.00 72 1019.4
20260901203016 62 284 2.0 3.0 0.00 0.00 0.00 71 1019.5
20260901202534 62 285 2.0 3.0 0.00 0.00 0.00 71 1019.5
20260901202032 62 286 1.0 3.0 0.00 0.00 0.00 71 1019.5
20260901201530 62 287 1.0 3.0 0.00 0.00 0.00 71 1019.4
20260901201028 62 287 1.0 3.0 0.00 0.00 0.00 70 1019.5
20260901200526 63 288 1.0 3.0 0.00 0.00 0.00 70 1019.4
20260901200024 63 293 2.0 2.0 0.00 0.00 0.00 70 1019.3
20260901195523 63 287 2.0 3.0 0.00 0.00 0.00 70 1019.5
20260901195020 63 288 2.0 3.0 0.00 0.00 0.00 70 1019.5
20260901194518 63 290 2.0 6.0 0.00 0.00 0.00 70 1019.5
20260901194048 63 293 2.0 3.0 0.00 0.00 0.00 70 1019.5
20260901194016 63 293 2.0 3.0 0.00 0.00 0.00 70 1019.5
20260901193535 63 261 1.0 4.0 0.00 0.00 0.00 69 1019.4
20260901193033 63 254 1.0 3.0 0.00 0.00 0.00 69 1019.5
20260901192531 63 258 1.0 2.0 0.00 0.00 0.00 69 1019.6
20260901192029 63 250 1.0 2.0 0.00 0.00 0.00 69 1019.5
20260901191527 64 251 1.0 2.0 0.00 0.00 0.00 69 1019.5
20260901191025 64 256 1.0 3.0 0.00 0.00 0.00 68 1019.4
20260901190523 64 256 1.0 3.0 0.00 0.00 0.00 68 1019.5
20260901190022 64 258 1.0 3.0 0.00 0.00 0.00 68 1019.5
20260901185520 64 286 0.0 2.0 0.00 0.00 0.00 68 1019.5
20260901185018 64 288 1.0 3.0 0.00 0.00 0.00 68 1019.4
20260901184516 64 290 2.0 3.0 0.00 0.00 0.00 68 1019.4
20260901184034 64 278 2.0 4.0 0.00 0.00 0.00 68 1019.3
20260901183532 65 290 2.0 4.0 0.00 0.00 0.00 67 1019.4
20260901183031 65 281 2.0 6.0 0.00 0.00 0.00 67 1019.3
20260901182529 65 286 3.0 6.0 0.00 0.00 0.00 67 1019.4
20260901182027 65 279 3.0 6.0 0.00 0.00 0.00 67 1019.2
20260901181525 65 291 3.0 6.0 0.00 0.00 0.00 67 1019.2
20260901181023 65 285 3.0 7.0 0.00 0.00 0.00 67 1019.2
20260901180522 65 280 3.0 9.0 0.00 0.00 0.00 67 1019.0
20260901180020 65 264 3.0 6.0 0.00 0.00 0.00 67 1019.0
20260901175518 66 270 3.0 8.0 0.00 0.00 0.00 67 1019.0
20260901175016 66 272 2.0 4.0 0.00 0.00 0.00 67 1019.0
20260901174534 66 266 2.0 4.0 0.00 0.00 0.00 67 1019.0
20260901174033 66 258 1.0 4.0 0.00 0.00 0.00 66 1018.8
20260901173530 66 277 2.0 4.0 0.00 0.00 0.00 66 1018.8
20260901173029 66 261 1.0 4.0 0.00 0.00 0.00 66 1018.8
20260901172527 66 270 1.0 3.0 0.00 0.00 0.00 66 1018.8
20260901172025 66 0.0 0.0 0.00 0.00 0.00 66 1018.8
20260901171523 66 294 0.0 3.0 0.00 0.00 0.00 66 1018.7
20260901171021 66 279 2.0 4.0 0.00 0.00 0.00 66 1018.6
20260901170519 66 287 2.0 6.0 0.00 0.00 0.00 66 1018.6
20260901170049 67 290 2.0 6.0 0.00 0.00 0.00 66 1018.6
20260901170017 67 290 2.0 6.0 0.00 0.00 0.00 66 1018.6
20260901165535 67 286 2.0 6.0 0.00 0.00 0.00 65 1018.6
20260901165034 67 291 3.0 7.0 0.00 0.00 0.00 65 1018.6
20260901164532 67 289 3.0 8.0 0.00 0.00 0.00 65 1018.6
20260901164030 67 285 4.0 8.0 0.00 0.00 0.00 65 1018.5
20260901163528 67 283 2.0 6.0 0.00 0.00 0.00 65 1018.4
20260901163026 67 287 3.0 8.0 0.00 0.00 0.00 65 1018.4
20260901162524 67 274 3.0 7.0 0.00 0.00 0.00 65 1018.5
20260901162022 67 279 3.0 8.0 0.00 0.00 0.00 65 1018.4
20260901161520 67 276 4.0 8.0 0.00 0.00 0.00 64 1018.5
20260901161019 67 281 5.0 10.0 0.00 0.00 0.00 64 1018.5
20260901160516 67 285 5.0 11.0 0.00 0.00 0.00 64 1018.5
20260901160034 67 288 6.0 10.0 0.00 0.00 0.00 64 1018.4
20260901155533 67 274 4.0 9.0 0.00 0.00 0.00 64 1018.4
20260901155031 67 287 7.0 15.0 0.00 0.00 0.00 64 1018.4
20260901154529 67 281 5.0 11.0 0.00 0.00 0.00 64 1018.3
20260901154027 67 289 6.0 13.0 0.00 0.00 0.00 64 1018.3
20260901153525 67 277 5.0 10.0 0.00 0.00 0.00 64 1018.4
20260901153023 67 288 5.0 10.0 0.00 0.00 0.00 64 1018.3
20260901152521 67 291 6.0 15.0 0.00 0.00 0.00 64 1018.3
20260901152020 67 290 6.0 19.0 0.00 0.00 0.00 63 1018.3
20260901151517 67 287 8.0 16.0 0.00 0.00 0.00 63 1018.2
20260901151049 67 287 7.0 14.0 0.00 0.00 0.00 63 1018.2
20260901151015 67 287 7.0 14.0 0.00 0.00 0.00 63 1018.2
20260901150534 67 289 6.0 15.0 0.00 0.00 0.00 64 1018.2
20260901150032 67 279 6.0 15.0 0.00 0.00 0.00 63 1018.2
20260901145530 67 279 7.0 16.0 0.00 0.00 0.00 63 1018.1
20260901145028 67 278 6.0 17.0 0.00 0.00 0.00 63 1018.2
20260901144526 67 286 4.0 11.0 0.00 0.00 0.00 63 1018.2
20260901144025 68 297 6.0 13.0 0.00 0.00 0.00 63 1018.1
20260901143523 68 270 6.0 13.0 0.00 0.00 0.00 63 1018.2
20260901143021 68 276 5.0 10.0 0.00 0.00 0.00 63 1018.2
20260901142519 68 279 5.0 10.0 0.00 0.00 0.00 63 1018.1
20260901142049 68 279 5.0 13.0 0.00 0.00 0.00 63 1018.1
20260901142017 68 279 5.0 13.0 0.00 0.00 0.00 63 1018.1